Simultaneous Nadir Overpasses (SNOs) Predictions

Prediction of SNOs between TERRA and METOP-C Satellite Orbit:

Table of predicted SNOs for the next 14.0 days since TLE Epoch: 7/23/2022
Index Date (TERRA) Time (TERRA) Lat,Lon (TERRA) SZA (TERRA ) Date (METOP-C) Time (METOP-C) Lat,Lon (METOP-C) SZA (METOP-C ) Distance(km) Time Diff (sec)
1 07/24/2022 20:53:22 -81.15, 86.95 116.57 07/24/2022 20:52:26 -81.16, 87.02 116.58 1.38 56
2 07/24/2022 21:42:47 81.18,-104.97 63.51 07/24/2022 21:43:04 81.18,-104.79 63.54 3.18 17
3 07/27/2022 16:27:28 -81.16, 153.65 115.91 07/27/2022 16:26:47 -81.16, 153.59 115.94 1.11 41
4 07/27/2022 17:16:53 81.19, -38.30 64.16 07/27/2022 17:17:25 81.19, -38.19 64.18 1.98 32
5 07/30/2022 12:01:34 -81.17,-139.76 115.23 07/30/2022 12:01:08 -81.16,-139.88 115.26 2.34 26
6 07/30/2022 12:51:00 81.18, 27.89 64.78 07/30/2022 12:51:47 81.18, 27.99 64.82 1.84 47
7 08/02/2022 07:35:39 -81.18, -73.27 114.53 08/02/2022 07:35:28 -81.17, -73.39 114.55 2.32 11
8 08/02/2022 08:25:05 81.18, 94.35 65.48 08/02/2022 08:26:07 81.19, 94.51 65.54 2.97 62
9 08/05/2022 02:20:19 81.15,-174.88 66.15 08/05/2022 02:19:10 81.14,-175.02 66.10 2.35 69



Historial Predications of SNOs between TERRA and METOP-C
